Location: Azul
(36.7830°S, 59.8500°W)
Time: 09:42:20
(UTC-03:00)

NOAA 18 - Visible Passes

Search period start: 22 October 2021 00:00
Search period end: 01 November 2021 00:00
Orbit: 841 x 860 km, 99.0° (Epoch: 22 October)

Date Brightness Start Highest point End Pass type
(mag) Time Alt. Az. Time Alt. Az. Time Alt. Az.
22 Oct 7.7 00:33:41 10° SSW 00:35:23 16° SW 00:35:23 16° SW visible
22 Oct 7.4 22:40:15 10° SSE 22:41:23 16° SE 22:41:23 16° SE visible
23 Oct 7.5 00:21:21 10° SSW 00:23:24 19° SSW 00:23:24 19° SSW visible
23 Oct 7.4 22:28:35 10° SE 22:29:24 14° SE 22:29:24 14° SE visible
24 Oct 7.3 00:09:06 10° S 00:11:24 22° SSW 00:11:24 22° SSW visible
24 Oct 7.5 22:17:01 10° SE 22:17:25 12° SE 22:17:25 12° SE visible
24 Oct 7.2 23:56:57 10° S 23:59:24 25° SSW 23:59:24 25° SSW visible
25 Oct 7.0 23:44:52 10° S 23:47:25 27° S 23:47:25 27° S visible
26 Oct 6.9 23:32:49 10° S 23:35:25 29° S 23:35:25 29° S visible
27 Oct 6.8 23:20:51 10° SSE 23:23:24 29° SSE 23:23:24 29° SSE visible
28 Oct 7.8 01:04:42 10° SW 01:05:25 11° SW 01:05:25 11° SW visible
28 Oct 6.8 23:08:55 10° SSE 23:11:25 28° SSE 23:11:25 28° SSE visible
29 Oct 7.7 00:51:34 10° SSW 00:53:25 14° SW 00:53:25 14° SW visible
29 Oct 6.9 22:57:03 10° SSE 22:59:25 25° SSE 22:59:25 25° SSE visible
30 Oct 7.5 00:38:58 10° SSW 00:41:25 17° SW 00:41:25 17° SW visible
30 Oct 6.9 22:45:16 10° SSE 22:47:25 23° SE 22:47:25 23° SE visible
31 Oct 7.3 00:26:34 10° SSW 00:29:25 21° SW 00:29:25 21° SW visible
31 Oct 7.0 22:33:33 10° SE 22:35:25 19° SE 22:35:25 19° SE visible
